Tracking 31027 objects as of 19-Jul-2025
HD Live streaming from Space Station
objects crossing your sky now

INTELSAT 508

Track INTELSAT 508 now!
INTELSAT 508 is classified as:


NORAD ID: 14786
Int'l Code: 1984-023A
Perigee: 36,574.2 km
Apogee: 36,725.6 km
Inclination: 13.9 °
Period: 1,480.1 minutes
Semi major axis: 43020 km
RCS: 7.6859 m2 (large)
Launch date: March 5, 1984
Source: International Telecommunications Satellite Organization (ITSO)
Launch site: FRENCH GUIANA (FRGUI)
Your satellite tracking list
STARLINK-1749
Track 1 satellite(s)




NASA's NSSDC Master Catalog

Two Line Element Set (TLE):
1 14786U 84023A   25199.53254275 -.00000179  00000-0  00000-0 0  9990
2 14786  13.9402 340.0234 0017602 244.6886  57.4214  0.97293477 42712
Source of the keplerian elements: AFSPC